owner,sensor,date,latitude,longitude,vertical_datum,sea_water_temperature,qcFlag 
NDBC,ioos:station:NOAA.NDBC:SAUF1:1,2017-08-01T00:00:00Z,29.8570,-81.2650,0.0,25.8,2 
NDBC,ioos:station:NOAA.NDBC:SAUF1:1,2017-08-01T01:00:00Z,29.8570,-81.2650,0.0,25.8,2 
NDBC,ioos:station:NOAA.NDBC:SAUF1:1,2017-08-01T02:00:00Z,29.8570,-81.2650,0.0,25.7,2 
NDBC,ioos:station:NOAA.NDBC:SAUF1:1,2017-08-01T03:00:00Z,29.8570,-81.2650,0.0,25.7,2 
NDBC,ioos:station:NOAA.NDBC:SAUF1:1,2017-08-01T05:00:00Z,29.8570,-81.2650,0.0,25.8,2 
NDBC,ioos:station:NOAA.NDBC:SAUF1:1,2017-08-01T06:00:00Z,29.8570,-81.2650,0.0,25.9,2 
NDBC,ioos:station:NOAA.NDBC:SAUF1:1,2017-08-01T08:00:00Z,29.8570,-81.2650,0.0,25.7,2 
NDBC,ioos:station:NOAA.NDBC:SAUF1:1,2017-08-01T12:00:00Z,29.8570,-81.2650,0.0,25.9,2 
NDBC,ioos:station:NOAA.NDBC:SAUF1:1,2017-08-01T13:00:00Z,29.8570,-81.2650,0.0,25.9,2 
NDBC,ioos:station:NOAA.NDBC:SAUF1:1,2017-08-01T16:00:00Z,29.8570,-81.2650,0.0,26.6,2 
NDBC,ioos:station:NOAA.NDBC:SAUF1:1,2017-08-01T19:00:00Z,29.8570,-81.2650,0.0,27.3,2 
NDBC,ioos:station:NOAA.NDBC:SAUF1:1,2017-08-01T20:00:00Z,29.8570,-81.2650,0.0,27.3,2 
NDBC,ioos:station:NOAA.NDBC:SAUF1:1,2017-08-01T21:00:00Z,29.8570,-81.2650,0.0,27.2,2 
NDBC,ioos:station:NOAA.NDBC:SAUF1:1,2017-08-01T22:00:00Z,29.8570,-81.2650,0.0,27.1,2 
NDBC,ioos:station:NOAA.NDBC:SAUF1:1,2017-08-01T23:00:00Z,29.8570,-81.2650,0.0,26.9,2 
NDBC,ioos:station:NOAA.NDBC:SAUF1:1,2017-08-02T01:00:00Z,29.8570,-81.2650,0.0,26.5,2 
NDBC,ioos:station:NOAA.NDBC:SAUF1:1,2017-08-02T02:00:00Z,29.8570,-81.2650,0.0,26.5,2 
NDBC,ioos:station:NOAA.NDBC:SAUF1:1,2017-08-02T03:00:00Z,29.8570,-81.2650,0.0,26.5,2 
NDBC,ioos:station:NOAA.NDBC:SAUF1:1,2017-08-02T12:00:00Z,29.8570,-81.2650,0.0,26.6,2 
NDBC,ioos:station:NOAA.NDBC:SAUF1:1,2017-08-03T00:00:00Z,29.8570,-81.2650,0.0,26.4,2 
NDBC,ioos:station:NOAA.NDBC:SAUF1:1,2017-08-03T01:00:00Z,29.8570,-81.2650,0.0,26.4,2 
NDBC,ioos:station:NOAA.NDBC:SAUF1:1,2017-08-03T02:00:00Z,29.8570,-81.2650,0.0,26.3,2 
NDBC,ioos:station:NOAA.NDBC:SAUF1:1,2017-08-03T08:00:00Z,29.8570,-81.2650,0.0,26.1,2 
NDBC,ioos:station:NOAA.NDBC:SAUF1:1,2017-08-03T12:00:00Z,29.8570,-81.2650,0.0,25.8,2 
NDBC,ioos:station:NOAA.NDBC:SAUF1:1,2017-08-03T13:00:00Z,29.8570,-81.2650,0.0,25.9,2 
NDBC,ioos:station:NOAA.NDBC:SAUF1:1,2017-08-03T14:00:00Z,29.8570,-81.2650,0.0,26.0,2 
NDBC,ioos:station:NOAA.NDBC:SAUF1:1,2017-08-03T19:00:00Z,29.8570,-81.2650,0.0,26.2,2 
NDBC,ioos:station:NOAA.NDBC:SAUF1:1,2017-08-04T02:00:00Z,29.8570,-81.2650,0.0,26.1,2 
NDBC,ioos:station:NOAA.NDBC:SAUF1:1,2017-08-04T22:00:00Z,29.8570,-81.2650,0.0,27.3,2 
NDBC,ioos:station:NOAA.NDBC:SAUF1:1,2017-08-04T23:00:00Z,29.8570,-81.2650,0.0,26.9,2 
NDBC,ioos:station:NOAA.NDBC:SAUF1:1,2017-08-05T04:00:00Z,29.8570,-81.2650,0.0,26.6,2 
NDBC,ioos:station:NOAA.NDBC:SAUF1:1,2017-08-05T16:00:00Z,29.8570,-81.2650,0.0,26.6,2 
NDBC,ioos:station:NOAA.NDBC:SAUF1:1,2017-08-05T21:00:00Z,29.8570,-81.2650,0.0,27.1,2 
NDBC,ioos:station:NOAA.NDBC:SAUF1:1,2017-08-05T22:00:00Z,29.8570,-81.2650,0.0,27.3,2 
NDBC,ioos:station:NOAA.NDBC:SAUF1:1,2017-08-06T02:00:00Z,29.8570,-81.2650,0.0,26.5,2 
NDBC,ioos:station:NOAA.NDBC:SAUF1:1,2017-08-06T18:00:00Z,29.8570,-81.2650,0.0,27.9,2 
NDBC,ioos:station:NOAA.NDBC:SAUF1:1,2017-08-06T19:00:00Z,29.8570,-81.2650,0.0,28.3,2 
NDBC,ioos:station:NOAA.NDBC:SAUF1:1,2017-08-06T23:00:00Z,29.8570,-81.2650,0.0,28.4,2 
NDBC,ioos:station:NOAA.NDBC:SAUF1:1,2017-08-07T00:00:00Z,29.8570,-81.2650,0.0,28.0,2 
NDBC,ioos:station:NOAA.NDBC:SAUF1:1,2017-08-07T01:00:00Z,29.8570,-81.2650,0.0,28.1,2 
NDBC,ioos:station:NOAA.NDBC:SAUF1:1,2017-08-07T02:00:00Z,29.8570,-81.2650,0.0,27.7,2 
NDBC,ioos:station:NOAA.NDBC:SAUF1:1,2017-08-07T23:00:00Z,29.8570,-81.2650,0.0,27.3,2 
NDBC,ioos:station:NOAA.NDBC:SAUF1:1,2017-08-08T00:00:00Z,29.8570,-81.2650,0.0,27.1,2 
NDBC,ioos:station:NOAA.NDBC:SAUF1:1,2017-08-08T02:00:00Z,29.8570,-81.2650,0.0,26.8,2 
NDBC,ioos:station:NOAA.NDBC:SAUF1:1,2017-08-08T13:00:00Z,29.8570,-81.2650,0.0,25.9,2 
NDBC,ioos:station:NOAA.NDBC:SAUF1:1,2017-08-08T15:00:00Z,29.8570,-81.2650,0.0,26.2,2 
NDBC,ioos:station:NOAA.NDBC:SAUF1:1,2017-08-08T16:00:00Z,29.8570,-81.2650,0.0,26.4,2 
NDBC,ioos:station:NOAA.NDBC:SAUF1:1,2017-08-08T17:00:00Z,29.8570,-81.2650,0.0,26.8,2 
NDBC,ioos:station:NOAA.NDBC:SAUF1:1,2017-08-08T18:00:00Z,29.8570,-81.2650,0.0,27.0,2 
NDBC,ioos:station:NOAA.NDBC:SAUF1:1,2017-08-08T19:00:00Z,29.8570,-81.2650,0.0,27.6,2 
NDBC,ioos:station:NOAA.NDBC:SAUF1:1,2017-08-08T21:00:00Z,29.8570,-81.2650,0.0,27.5,2 
NDBC,ioos:station:NOAA.NDBC:SAUF1:1,2017-08-08T23:00:00Z,29.8570,-81.2650,0.0,26.7,2 
NDBC,ioos:station:NOAA.NDBC:SAUF1:1,2017-08-09T00:00:00Z,29.8570,-81.2650,0.0,26.2,2 
NDBC,ioos:station:NOAA.NDBC:SAUF1:1,2017-08-09T01:00:00Z,29.8570,-81.2650,0.0,25.9,2 
NDBC,ioos:station:NOAA.NDBC:SAUF1:1,2017-08-09T02:00:00Z,29.8570,-81.2650,0.0,26.0,2 
NDBC,ioos:station:NOAA.NDBC:SAUF1:1,2017-08-09T06:00:00Z,29.8570,-81.2650,0.0,26.0,2 
NDBC,ioos:station:NOAA.NDBC:SAUF1:1,2017-08-09T23:00:00Z,29.8570,-81.2650,0.0,27.2,2 
NDBC,ioos:station:NOAA.NDBC:SAUF1:1,2017-08-10T00:00:00Z,29.8570,-81.2650,0.0,26.5,2 
NDBC,ioos:station:NOAA.NDBC:SAUF1:1,2017-08-10T01:00:00Z,29.8570,-81.2650,0.0,26.2,2 
NDBC,ioos:station:NOAA.NDBC:SAUF1:1,2017-08-10T02:00:00Z,29.8570,-81.2650,0.0,26.1,2 
NDBC,ioos:station:NOAA.NDBC:SAUF1:1,2017-08-10T10:00:00Z,29.8570,-81.2650,0.0,26.2,2 
NDBC,ioos:station:NOAA.NDBC:SAUF1:1,2017-08-10T14:00:00Z,29.8570,-81.2650,0.0,26.2,2 
NDBC,ioos:station:NOAA.NDBC:SAUF1:1,2017-08-11T14:00:00Z,29.8570,-81.2650,0.0,27.5,2 
NDBC,ioos:station:NOAA.NDBC:SAUF1:1,2017-08-11T15:00:00Z,29.8570,-81.2650,0.0,27.6,2 
NDBC,ioos:station:NOAA.NDBC:SAUF1:1,2017-08-11T16:00:00Z,29.8570,-81.2650,0.0,27.8,2 
NDBC,ioos:station:NOAA.NDBC:SAUF1:1,2017-08-11T17:00:00Z,29.8570,-81.2650,0.0,28.0,2 
NDBC,ioos:station:NOAA.NDBC:SAUF1:1,2017-08-11T18:00:00Z,29.8570,-81.2650,0.0,28.2,2 
NDBC,ioos:station:NOAA.NDBC:SAUF1:1,2017-08-11T19:00:00Z,29.8570,-81.2650,0.0,28.3,2 
NDBC,ioos:station:NOAA.NDBC:SAUF1:1,2017-08-11T21:00:00Z,29.8570,-81.2650,0.0,28.8,2 
NDBC,ioos:station:NOAA.NDBC:SAUF1:1,2017-08-11T23:00:00Z,29.8570,-81.2650,0.0,28.8,2 
NDBC,ioos:station:NOAA.NDBC:SAUF1:1,2017-08-12T01:00:00Z,29.8570,-81.2650,0.0,28.6,2 
NDBC,ioos:station:NOAA.NDBC:SAUF1:1,2017-08-12T03:00:00Z,29.8570,-81.2650,0.0,28.3,2 
NDBC,ioos:station:NOAA.NDBC:SAUF1:1,2017-08-12T05:00:00Z,29.8570,-81.2650,0.0,28.1,2 
NDBC,ioos:station:NOAA.NDBC:SAUF1:1,2017-08-12T07:00:00Z,29.8570,-81.2650,0.0,28.0,2 
NDBC,ioos:station:NOAA.NDBC:SAUF1:1,2017-08-12T09:00:00Z,29.8570,-81.2650,0.0,27.8,2 
NDBC,ioos:station:NOAA.NDBC:SAUF1:1,2017-08-12T11:00:00Z,29.8570,-81.2650,0.0,27.7,2 
NDBC,ioos:station:NOAA.NDBC:SAUF1:1,2017-08-12T13:00:00Z,29.8570,-81.2650,0.0,27.7,2 
NDBC,ioos:station:NOAA.NDBC:SAUF1:1,2017-08-12T14:00:00Z,29.8570,-81.2650,0.0,27.9,2 
NDBC,ioos:station:NOAA.NDBC:SAUF1:1,2017-08-12T15:00:00Z,29.8570,-81.2650,0.0,28.0,2 
NDBC,ioos:station:NOAA.NDBC:SAUF1:1,2017-08-12T17:00:00Z,29.8570,-81.2650,0.0,28.0,2 
NDBC,ioos:station:NOAA.NDBC:SAUF1:1,2017-08-12T19:00:00Z,29.8570,-81.2650,0.0,28.1,2 
NDBC,ioos:station:NOAA.NDBC:SAUF1:1,2017-08-12T21:00:00Z,29.8570,-81.2650,0.0,28.8,2 
NDBC,ioos:station:NOAA.NDBC:SAUF1:1,2017-08-12T23:00:00Z,29.8570,-81.2650,0.0,28.7,2 
NDBC,ioos:station:NOAA.NDBC:SAUF1:1,2017-08-13T01:00:00Z,29.8570,-81.2650,0.0,28.4,2 
NDBC,ioos:station:NOAA.NDBC:SAUF1:1,2017-08-13T02:00:00Z,29.8570,-81.2650,0.0,28.4,2 
NDBC,ioos:station:NOAA.NDBC:SAUF1:1,2017-08-13T03:00:00Z,29.8570,-81.2650,0.0,28.2,2 
NDBC,ioos:station:NOAA.NDBC:SAUF1:1,2017-08-13T05:00:00Z,29.8570,-81.2650,0.0,28.1,2 
NDBC,ioos:station:NOAA.NDBC:SAUF1:1,2017-08-13T07:00:00Z,29.8570,-81.2650,0.0,28.0,2 
NDBC,ioos:station:NOAA.NDBC:SAUF1:1,2017-08-13T09:00:00Z,29.8570,-81.2650,0.0,27.7,2 
NDBC,ioos:station:NOAA.NDBC:SAUF1:1,2017-08-13T11:00:00Z,29.8570,-81.2650,0.0,27.6,2 
NDBC,ioos:station:NOAA.NDBC:SAUF1:1,2017-08-13T13:00:00Z,29.8570,-81.2650,0.0,27.5,2 
NDBC,ioos:station:NOAA.NDBC:SAUF1:1,2017-08-13T15:00:00Z,29.8570,-81.2650,0.0,27.8,2 
NDBC,ioos:station:NOAA.NDBC:SAUF1:1,2017-08-13T17:00:00Z,29.8570,-81.2650,0.0,28.3,2 
NDBC,ioos:station:NOAA.NDBC:SAUF1:1,2017-08-13T19:00:00Z,29.8570,-81.2650,0.0,28.7,2 
NDBC,ioos:station:NOAA.NDBC:SAUF1:1,2017-08-13T21:00:00Z,29.8570,-81.2650,0.0,29.3,2 
NDBC,ioos:station:NOAA.NDBC:SAUF1:1,2017-08-13T23:00:00Z,29.8570,-81.2650,0.0,28.8,2 
NDBC,ioos:station:NOAA.NDBC:SAUF1:1,2017-08-14T02:00:00Z,29.8570,-81.2650,0.0,28.3,2 
NDBC,ioos:station:NOAA.NDBC:SAUF1:1,2017-08-14T03:00:00Z,29.8570,-81.2650,0.0,28.0,2 
NDBC,ioos:station:NOAA.NDBC:SAUF1:1,2017-08-14T05:00:00Z,29.8570,-81.2650,0.0,27.7,2 
NDBC,ioos:station:NOAA.NDBC:SAUF1:1,2017-08-14T07:00:00Z,29.8570,-81.2650,0.0,27.5,2 
NDBC,ioos:station:NOAA.NDBC:SAUF1:1,2017-08-14T09:00:00Z,29.8570,-81.2650,0.0,27.4,2 
NDBC,ioos:station:NOAA.NDBC:SAUF1:1,2017-08-14T11:00:00Z,29.8570,-81.2650,0.0,27.2,2 
NDBC,ioos:station:NOAA.NDBC:SAUF1:1,2017-08-14T13:00:00Z,29.8570,-81.2650,0.0,27.2,2 
NDBC,ioos:station:NOAA.NDBC:SAUF1:1,2017-08-14T16:00:00Z,29.8570,-81.2650,0.0,27.3,2 
NDBC,ioos:station:NOAA.NDBC:SAUF1:1,2017-08-14T19:00:00Z,29.8570,-81.2650,0.0,26.7,2 
NDBC,ioos:station:NOAA.NDBC:SAUF1:1,2017-08-14T21:00:00Z,29.8570,-81.2650,0.0,26.9,2 
NDBC,ioos:station:NOAA.NDBC:SAUF1:1,2017-08-14T23:00:00Z,29.8570,-81.2650,0.0,26.8,2 
NDBC,ioos:station:NOAA.NDBC:SAUF1:1,2017-08-15T01:00:00Z,29.8570,-81.2650,0.0,26.8,2 
NDBC,ioos:station:NOAA.NDBC:SAUF1:1,2017-08-15T03:00:00Z,29.8570,-81.2650,0.0,26.6,2 
NDBC,ioos:station:NOAA.NDBC:SAUF1:1,2017-08-15T05:00:00Z,29.8570,-81.2650,0.0,26.5,2 
NDBC,ioos:station:NOAA.NDBC:SAUF1:1,2017-08-15T07:00:00Z,29.8570,-81.2650,0.0,26.4,2 
NDBC,ioos:station:NOAA.NDBC:SAUF1:1,2017-08-15T09:00:00Z,29.8570,-81.2650,0.0,26.4,2 
NDBC,ioos:station:NOAA.NDBC:SAUF1:1,2017-08-15T11:00:00Z,29.8570,-81.2650,0.0,26.3,2 
NDBC,ioos:station:NOAA.NDBC:SAUF1:1,2017-08-15T13:00:00Z,29.8570,-81.2650,0.0,26.4,2 
NDBC,ioos:station:NOAA.NDBC:SAUF1:1,2017-08-15T15:00:00Z,29.8570,-81.2650,0.0,26.8,2 
NDBC,ioos:station:NOAA.NDBC:SAUF1:1,2017-08-15T17:00:00Z,29.8570,-81.2650,0.0,26.4,2 
NDBC,ioos:station:NOAA.NDBC:SAUF1:1,2017-08-15T19:00:00Z,29.8570,-81.2650,0.0,26.4,2 
NDBC,ioos:station:NOAA.NDBC:SAUF1:1,2017-08-15T21:00:00Z,29.8570,-81.2650,0.0,26.7,2 
NDBC,ioos:station:NOAA.NDBC:SAUF1:1,2017-08-15T23:00:00Z,29.8570,-81.2650,0.0,26.4,2 
NDBC,ioos:station:NOAA.NDBC:SAUF1:1,2017-08-16T00:00:00Z,29.8570,-81.2650,0.0,26.4,2 
NDBC,ioos:station:NOAA.NDBC:SAUF1:1,2017-08-16T01:00:00Z,29.8570,-81.2650,0.0,26.4,2 
NDBC,ioos:station:NOAA.NDBC:SAUF1:1,2017-08-16T03:00:00Z,29.8570,-81.2650,0.0,26.3,2 
NDBC,ioos:station:NOAA.NDBC:SAUF1:1,2017-08-16T05:00:00Z,29.8570,-81.2650,0.0,26.3,2 
NDBC,ioos:station:NOAA.NDBC:SAUF1:1,2017-08-16T07:00:00Z,29.8570,-81.2650,0.0,26.2,2 
NDBC,ioos:station:NOAA.NDBC:SAUF1:1,2017-08-16T09:00:00Z,29.8570,-81.2650,0.0,26.4,2 
NDBC,ioos:station:NOAA.NDBC:SAUF1:1,2017-08-16T11:00:00Z,29.8570,-81.2650,0.0,26.8,2 
NDBC,ioos:station:NOAA.NDBC:SAUF1:1,2017-08-16T13:00:00Z,29.8570,-81.2650,0.0,26.8,2 
NDBC,ioos:station:NOAA.NDBC:SAUF1:1,2017-08-16T15:00:00Z,29.8570,-81.2650,0.0,27.4,2 
NDBC,ioos:station:NOAA.NDBC:SAUF1:1,2017-08-16T17:00:00Z,29.8570,-81.2650,0.0,28.1,2 
NDBC,ioos:station:NOAA.NDBC:SAUF1:1,2017-08-16T19:00:00Z,29.8570,-81.2650,0.0,28.8,2 
NDBC,ioos:station:NOAA.NDBC:SAUF1:1,2017-08-16T21:00:00Z,29.8570,-81.2650,0.0,28.8,2 
NDBC,ioos:station:NOAA.NDBC:SAUF1:1,2017-08-17T03:00:00Z,29.8570,-81.2650,0.0,28.4,2 
NDBC,ioos:station:NOAA.NDBC:SAUF1:1,2017-08-17T05:00:00Z,29.8570,-81.2650,0.0,27.9,2 
NDBC,ioos:station:NOAA.NDBC:SAUF1:1,2017-08-17T07:00:00Z,29.8570,-81.2650,0.0,27.0,2 
NDBC,ioos:station:NOAA.NDBC:SAUF1:1,2017-08-17T09:00:00Z,29.8570,-81.2650,0.0,26.5,2 
NDBC,ioos:station:NOAA.NDBC:SAUF1:1,2017-08-17T11:00:00Z,29.8570,-81.2650,0.0,26.6,2 
NDBC,ioos:station:NOAA.NDBC:SAUF1:1,2017-08-17T13:00:00Z,29.8570,-81.2650,0.0,26.7,2 
NDBC,ioos:station:NOAA.NDBC:SAUF1:1,2017-08-17T14:00:00Z,29.8570,-81.2650,0.0,27.0,2 
NDBC,ioos:station:NOAA.NDBC:SAUF1:1,2017-08-17T15:00:00Z,29.8570,-81.2650,0.0,27.1,2 
NDBC,ioos:station:NOAA.NDBC:SAUF1:1,2017-08-17T17:00:00Z,29.8570,-81.2650,0.0,27.4,2 
NDBC,ioos:station:NOAA.NDBC:SAUF1:1,2017-08-17T19:00:00Z,29.8570,-81.2650,0.0,27.2,2 
NDBC,ioos:station:NOAA.NDBC:SAUF1:1,2017-08-17T21:00:00Z,29.8570,-81.2650,0.0,27.7,2 
NDBC,ioos:station:NOAA.NDBC:SAUF1:1,2017-08-17T23:00:00Z,29.8570,-81.2650,0.0,28.0,2 
NDBC,ioos:station:NOAA.NDBC:SAUF1:1,2017-08-18T01:00:00Z,29.8570,-81.2650,0.0,28.0,2 
NDBC,ioos:station:NOAA.NDBC:SAUF1:1,2017-08-18T03:00:00Z,29.8570,-81.2650,0.0,27.7,2 
NDBC,ioos:station:NOAA.NDBC:SAUF1:1,2017-08-18T05:00:00Z,29.8570,-81.2650,0.0,27.6,2 
NDBC,ioos:station:NOAA.NDBC:SAUF1:1,2017-08-18T07:00:00Z,29.8570,-81.2650,0.0,27.3,2 
NDBC,ioos:station:NOAA.NDBC:SAUF1:1,2017-08-18T09:00:00Z,29.8570,-81.2650,0.0,27.3,2 
NDBC,ioos:station:NOAA.NDBC:SAUF1:1,2017-08-18T11:00:00Z,29.8570,-81.2650,0.0,27.1,2 
NDBC,ioos:station:NOAA.NDBC:SAUF1:1,2017-08-18T13:00:00Z,29.8570,-81.2650,0.0,27.1,2 
NDBC,ioos:station:NOAA.NDBC:SAUF1:1,2017-08-18T15:00:00Z,29.8570,-81.2650,0.0,27.7,2 
NDBC,ioos:station:NOAA.NDBC:SAUF1:1,2017-08-18T17:00:00Z,29.8570,-81.2650,0.0,28.6,2 
NDBC,ioos:station:NOAA.NDBC:SAUF1:1,2017-08-18T19:00:00Z,29.8570,-81.2650,0.0,28.9,2 
NDBC,ioos:station:NOAA.NDBC:SAUF1:1,2017-08-18T21:00:00Z,29.8570,-81.2650,0.0,28.5,2 
NDBC,ioos:station:NOAA.NDBC:SAUF1:1,2017-08-18T23:00:00Z,29.8570,-81.2650,0.0,27.7,2 
NDBC,ioos:station:NOAA.NDBC:SAUF1:1,2017-08-19T01:00:00Z,29.8570,-81.2650,0.0,27.6,2 
NDBC,ioos:station:NOAA.NDBC:SAUF1:1,2017-08-19T03:00:00Z,29.8570,-81.2650,0.0,27.5,2 
NDBC,ioos:station:NOAA.NDBC:SAUF1:1,2017-08-19T05:00:00Z,29.8570,-81.2650,0.0,27.2,2 
NDBC,ioos:station:NOAA.NDBC:SAUF1:1,2017-08-19T09:00:00Z,29.8570,-81.2650,0.0,26.9,2 
NDBC,ioos:station:NOAA.NDBC:SAUF1:1,2017-08-19T11:00:00Z,29.8570,-81.2650,0.0,26.9,2 
NDBC,ioos:station:NOAA.NDBC:SAUF1:1,2017-08-19T13:00:00Z,29.8570,-81.2650,0.0,27.0,2 
NDBC,ioos:station:NOAA.NDBC:SAUF1:1,2017-08-19T15:00:00Z,29.8570,-81.2650,0.0,27.2,2 
NDBC,ioos:station:NOAA.NDBC:SAUF1:1,2017-08-19T17:00:00Z,29.8570,-81.2650,0.0,28.2,2 
NDBC,ioos:station:NOAA.NDBC:SAUF1:1,2017-08-19T19:00:00Z,29.8570,-81.2650,0.0,28.8,2 
NDBC,ioos:station:NOAA.NDBC:SAUF1:1,2017-08-19T21:00:00Z,29.8570,-81.2650,0.0,28.7,2 
NDBC,ioos:station:NOAA.NDBC:SAUF1:1,2017-08-19T23:00:00Z,29.8570,-81.2650,0.0,28.8,2 
NDBC,ioos:station:NOAA.NDBC:SAUF1:1,2017-08-20T01:00:00Z,29.8570,-81.2650,0.0,28.5,2 
NDBC,ioos:station:NOAA.NDBC:SAUF1:1,2017-08-20T03:00:00Z,29.8570,-81.2650,0.0,28.7,2 
NDBC,ioos:station:NOAA.NDBC:SAUF1:1,2017-08-20T05:00:00Z,29.8570,-81.2650,0.0,28.3,2 
NDBC,ioos:station:NOAA.NDBC:SAUF1:1,2017-08-20T07:00:00Z,29.8570,-81.2650,0.0,28.2,2 
NDBC,ioos:station:NOAA.NDBC:SAUF1:1,2017-08-20T09:00:00Z,29.8570,-81.2650,0.0,27.5,2 
NDBC,ioos:station:NOAA.NDBC:SAUF1:1,2017-08-20T11:00:00Z,29.8570,-81.2650,0.0,27.1,2 
NDBC,ioos:station:NOAA.NDBC:SAUF1:1,2017-08-20T13:00:00Z,29.8570,-81.2650,0.0,26.7,2 
NDBC,ioos:station:NOAA.NDBC:SAUF1:1,2017-08-20T15:00:00Z,29.8570,-81.2650,0.0,27.2,2 
NDBC,ioos:station:NOAA.NDBC:SAUF1:1,2017-08-20T17:00:00Z,29.8570,-81.2650,0.0,28.1,2 
NDBC,ioos:station:NOAA.NDBC:SAUF1:1,2017-08-20T19:00:00Z,29.8570,-81.2650,0.0,28.7,2 
NDBC,ioos:station:NOAA.NDBC:SAUF1:1,2017-08-20T21:00:00Z,29.8570,-81.2650,0.0,28.8,2 
NDBC,ioos:station:NOAA.NDBC:SAUF1:1,2017-08-20T23:00:00Z,29.8570,-81.2650,0.0,28.5,2 
NDBC,ioos:station:NOAA.NDBC:SAUF1:1,2017-08-21T00:00:00Z,29.8570,-81.2650,0.0,28.5,2 
NDBC,ioos:station:NOAA.NDBC:SAUF1:1,2017-08-21T01:00:00Z,29.8570,-81.2650,0.0,28.4,2 
NDBC,ioos:station:NOAA.NDBC:SAUF1:1,2017-08-21T02:00:00Z,29.8570,-81.2650,0.0,28.3,2 
NDBC,ioos:station:NOAA.NDBC:SAUF1:1,2017-08-21T03:00:00Z,29.8570,-81.2650,0.0,28.5,2 
NDBC,ioos:station:NOAA.NDBC:SAUF1:1,2017-08-21T05:00:00Z,29.8570,-81.2650,0.0,28.3,2 
NDBC,ioos:station:NOAA.NDBC:SAUF1:1,2017-08-21T07:00:00Z,29.8570,-81.2650,0.0,27.9,2 
NDBC,ioos:station:NOAA.NDBC:SAUF1:1,2017-08-21T09:00:00Z,29.8570,-81.2650,0.0,27.5,2 
NDBC,ioos:station:NOAA.NDBC:SAUF1:1,2017-08-21T11:00:00Z,29.8570,-81.2650,0.0,27.2,2 
NDBC,ioos:station:NOAA.NDBC:SAUF1:1,2017-08-21T13:00:00Z,29.8570,-81.2650,0.0,27.2,2 
NDBC,ioos:station:NOAA.NDBC:SAUF1:1,2017-08-21T14:00:00Z,29.8570,-81.2650,0.0,27.2,2 
NDBC,ioos:station:NOAA.NDBC:SAUF1:1,2017-08-21T15:00:00Z,29.8570,-81.2650,0.0,27.5,2 
NDBC,ioos:station:NOAA.NDBC:SAUF1:1,2017-08-21T17:00:00Z,29.8570,-81.2650,0.0,28.1,2 
NDBC,ioos:station:NOAA.NDBC:SAUF1:1,2017-08-21T19:00:00Z,29.8570,-81.2650,0.0,28.4,2 
NDBC,ioos:station:NOAA.NDBC:SAUF1:1,2017-08-21T21:00:00Z,29.8570,-81.2650,0.0,28.4,2 
NDBC,ioos:station:NOAA.NDBC:SAUF1:1,2017-08-21T23:00:00Z,29.8570,-81.2650,0.0,28.2,2 
NDBC,ioos:station:NOAA.NDBC:SAUF1:1,2017-08-22T01:00:00Z,29.8570,-81.2650,0.0,27.5,2 
NDBC,ioos:station:NOAA.NDBC:SAUF1:1,2017-08-22T05:00:00Z,29.8570,-81.2650,0.0,27.9,2 
NDBC,ioos:station:NOAA.NDBC:SAUF1:1,2017-08-22T09:00:00Z,29.8570,-81.2650,0.0,27.6,2 
NDBC,ioos:station:NOAA.NDBC:SAUF1:1,2017-08-22T11:00:00Z,29.8570,-81.2650,0.0,27.6,2 
NDBC,ioos:station:NOAA.NDBC:SAUF1:1,2017-08-22T13:00:00Z,29.8570,-81.2650,0.0,27.5,2 
NDBC,ioos:station:NOAA.NDBC:SAUF1:1,2017-08-22T15:00:00Z,29.8570,-81.2650,0.0,27.6,2 
NDBC,ioos:station:NOAA.NDBC:SAUF1:1,2017-08-22T17:00:00Z,29.8570,-81.2650,0.0,28.4,2 
NDBC,ioos:station:NOAA.NDBC:SAUF1:1,2017-08-22T19:00:00Z,29.8570,-81.2650,0.0,29.2,2 
NDBC,ioos:station:NOAA.NDBC:SAUF1:1,2017-08-22T20:00:00Z,29.8570,-81.2650,0.0,29.3,2 
NDBC,ioos:station:NOAA.NDBC:SAUF1:1,2017-08-22T21:00:00Z,29.8570,-81.2650,0.0,29.3,2 
NDBC,ioos:station:NOAA.NDBC:SAUF1:1,2017-08-23T03:00:00Z,29.8570,-81.2650,0.0,28.3,2 
NDBC,ioos:station:NOAA.NDBC:SAUF1:1,2017-08-23T05:00:00Z,29.8570,-81.2650,0.0,28.2,2 
NDBC,ioos:station:NOAA.NDBC:SAUF1:1,2017-08-23T09:00:00Z,29.8570,-81.2650,0.0,27.8,2 
NDBC,ioos:station:NOAA.NDBC:SAUF1:1,2017-08-23T11:00:00Z,29.8570,-81.2650,0.0,27.5,2 
NDBC,ioos:station:NOAA.NDBC:SAUF1:1,2017-08-23T13:00:00Z,29.8570,-81.2650,0.0,27.1,2 
NDBC,ioos:station:NOAA.NDBC:SAUF1:1,2017-08-23T15:00:00Z,29.8570,-81.2650,0.0,27.1,2 
NDBC,ioos:station:NOAA.NDBC:SAUF1:1,2017-08-23T17:00:00Z,29.8570,-81.2650,0.0,28.2,2 
NDBC,ioos:station:NOAA.NDBC:SAUF1:1,2017-08-23T19:00:00Z,29.8570,-81.2650,0.0,29.4,2 
NDBC,ioos:station:NOAA.NDBC:SAUF1:1,2017-08-23T21:00:00Z,29.8570,-81.2650,0.0,29.9,2 
NDBC,ioos:station:NOAA.NDBC:SAUF1:1,2017-08-24T01:00:00Z,29.8570,-81.2650,0.0,29.2,2 
NDBC,ioos:station:NOAA.NDBC:SAUF1:1,2017-08-24T03:00:00Z,29.8570,-81.2650,0.0,29.2,2 
NDBC,ioos:station:NOAA.NDBC:SAUF1:1,2017-08-24T04:00:00Z,29.8570,-81.2650,0.0,29.1,2 
NDBC,ioos:station:NOAA.NDBC:SAUF1:1,2017-08-24T05:00:00Z,29.8570,-81.2650,0.0,28.6,2 
NDBC,ioos:station:NOAA.NDBC:SAUF1:1,2017-08-24T06:00:00Z,29.8570,-81.2650,0.0,28.5,2 
NDBC,ioos:station:NOAA.NDBC:SAUF1:1,2017-08-24T07:00:00Z,29.8570,-81.2650,0.0,28.3,2 
NDBC,ioos:station:NOAA.NDBC:SAUF1:1,2017-08-24T09:00:00Z,29.8570,-81.2650,0.0,28.1,2 
NDBC,ioos:station:NOAA.NDBC:SAUF1:1,2017-08-24T11:00:00Z,29.8570,-81.2650,0.0,27.7,2 
NDBC,ioos:station:NOAA.NDBC:SAUF1:1,2017-08-24T13:00:00Z,29.8570,-81.2650,0.0,27.5,2 
NDBC,ioos:station:NOAA.NDBC:SAUF1:1,2017-08-24T15:00:00Z,29.8570,-81.2650,0.0,27.5,2 
NDBC,ioos:station:NOAA.NDBC:SAUF1:1,2017-08-24T17:00:00Z,29.8570,-81.2650,0.0,27.8,2 
NDBC,ioos:station:NOAA.NDBC:SAUF1:1,2017-08-24T19:00:00Z,29.8570,-81.2650,0.0,29.2,2 
NDBC,ioos:station:NOAA.NDBC:SAUF1:1,2017-08-24T21:00:00Z,29.8570,-81.2650,0.0,29.6,2 
NDBC,ioos:station:NOAA.NDBC:SAUF1:1,2017-08-24T23:00:00Z,29.8570,-81.2650,0.0,29.4,2 
NDBC,ioos:station:NOAA.NDBC:SAUF1:1,2017-08-25T01:00:00Z,29.8570,-81.2650,0.0,29.0,2 
NDBC,ioos:station:NOAA.NDBC:SAUF1:1,2017-08-25T03:00:00Z,29.8570,-81.2650,0.0,28.8,2 
NDBC,ioos:station:NOAA.NDBC:SAUF1:1,2017-08-25T05:00:00Z,29.8570,-81.2650,0.0,28.8,2 
NDBC,ioos:station:NOAA.NDBC:SAUF1:1,2017-08-25T06:00:00Z,29.8570,-81.2650,0.0,28.7,2 
NDBC,ioos:station:NOAA.NDBC:SAUF1:1,2017-08-25T07:00:00Z,29.8570,-81.2650,0.0,28.5,2 
NDBC,ioos:station:NOAA.NDBC:SAUF1:1,2017-08-25T08:00:00Z,29.8570,-81.2650,0.0,28.3,2 
NDBC,ioos:station:NOAA.NDBC:SAUF1:1,2017-08-25T09:00:00Z,29.8570,-81.2650,0.0,28.2,2 
NDBC,ioos:station:NOAA.NDBC:SAUF1:1,2017-08-25T10:00:00Z,29.8570,-81.2650,0.0,28.0,2 
NDBC,ioos:station:NOAA.NDBC:SAUF1:1,2017-08-25T11:00:00Z,29.8570,-81.2650,0.0,28.0,2 
NDBC,ioos:station:NOAA.NDBC:SAUF1:1,2017-08-25T13:00:00Z,29.8570,-81.2650,0.0,27.9,2 
NDBC,ioos:station:NOAA.NDBC:SAUF1:1,2017-08-25T15:00:00Z,29.8570,-81.2650,0.0,28.0,2 
NDBC,ioos:station:NOAA.NDBC:SAUF1:1,2017-08-25T18:00:00Z,29.8570,-81.2650,0.0,28.3,2 
NDBC,ioos:station:NOAA.NDBC:SAUF1:1,2017-08-25T19:00:00Z,29.8570,-81.2650,0.0,29.3,2 
NDBC,ioos:station:NOAA.NDBC:SAUF1:1,2017-08-25T21:00:00Z,29.8570,-81.2650,0.0,29.8,2 
NDBC,ioos:station:NOAA.NDBC:SAUF1:1,2017-08-25T23:00:00Z,29.8570,-81.2650,0.0,29.7,2 
NDBC,ioos:station:NOAA.NDBC:SAUF1:1,2017-08-27T17:00:00Z,29.8570,-81.2650,0.0,29.2,2 
NDBC,ioos:station:NOAA.NDBC:SAUF1:1,2017-08-27T19:00:00Z,29.8570,-81.2650,0.0,29.3,2 
NDBC,ioos:station:NOAA.NDBC:SAUF1:1,2017-08-27T21:00:00Z,29.8570,-81.2650,0.0,29.3,2 
NDBC,ioos:station:NOAA.NDBC:SAUF1:1,2017-08-28T01:00:00Z,29.8570,-81.2650,0.0,28.9,2 
NDBC,ioos:station:NOAA.NDBC:SAUF1:1,2017-08-28T03:00:00Z,29.8570,-81.2650,0.0,28.9,2 
NDBC,ioos:station:NOAA.NDBC:SAUF1:1,2017-08-28T04:00:00Z,29.8570,-81.2650,0.0,28.9,2 
NDBC,ioos:station:NOAA.NDBC:SAUF1:1,2017-08-28T05:00:00Z,29.8570,-81.2650,0.0,28.9,2 
NDBC,ioos:station:NOAA.NDBC:SAUF1:1,2017-08-28T07:00:00Z,29.8570,-81.2650,0.0,28.9,2 
NDBC,ioos:station:NOAA.NDBC:SAUF1:1,2017-08-28T08:00:00Z,29.8570,-81.2650,0.0,28.9,2 
NDBC,ioos:station:NOAA.NDBC:SAUF1:1,2017-08-28T09:00:00Z,29.8570,-81.2650,0.0,28.9,2 
NDBC,ioos:station:NOAA.NDBC:SAUF1:1,2017-08-28T11:00:00Z,29.8570,-81.2650,0.0,28.8,2 
NDBC,ioos:station:NOAA.NDBC:SAUF1:1,2017-08-28T13:00:00Z,29.8570,-81.2650,0.0,28.8,2 
NDBC,ioos:station:NOAA.NDBC:SAUF1:1,2017-08-28T15:00:00Z,29.8570,-81.2650,0.0,28.9,2 
NDBC,ioos:station:NOAA.NDBC:SAUF1:1,2017-08-28T16:00:00Z,29.8570,-81.2650,0.0,29.0,2 
NDBC,ioos:station:NOAA.NDBC:SAUF1:1,2017-08-28T17:00:00Z,29.8570,-81.2650,0.0,29.0,2 
NDBC,ioos:station:NOAA.NDBC:SAUF1:1,2017-08-28T19:00:00Z,29.8570,-81.2650,0.0,29.2,2 
NDBC,ioos:station:NOAA.NDBC:SAUF1:1,2017-08-28T21:00:00Z,29.8570,-81.2650,0.0,29.3,2 
NDBC,ioos:station:NOAA.NDBC:SAUF1:1,2017-08-29T00:00:00Z,29.8570,-81.2650,0.0,29.0,2 
NDBC,ioos:station:NOAA.NDBC:SAUF1:1,2017-08-29T01:00:00Z,29.8570,-81.2650,0.0,28.9,2 
NDBC,ioos:station:NOAA.NDBC:SAUF1:1,2017-08-29T02:00:00Z,29.8570,-81.2650,0.0,28.7,2 
NDBC,ioos:station:NOAA.NDBC:SAUF1:1,2017-08-29T03:00:00Z,29.8570,-81.2650,0.0,28.7,2 
NDBC,ioos:station:NOAA.NDBC:SAUF1:1,2017-08-29T05:00:00Z,29.8570,-81.2650,0.0,28.6,2 
NDBC,ioos:station:NOAA.NDBC:SAUF1:1,2017-08-29T06:00:00Z,29.8570,-81.2650,0.0,28.8,2 
NDBC,ioos:station:NOAA.NDBC:SAUF1:1,2017-08-29T09:00:00Z,29.8570,-81.2650,0.0,28.5,2 
NDBC,ioos:station:NOAA.NDBC:SAUF1:1,2017-08-29T11:00:00Z,29.8570,-81.2650,0.0,28.4,2 
NDBC,ioos:station:NOAA.NDBC:SAUF1:1,2017-08-29T13:00:00Z,29.8570,-81.2650,0.0,28.4,2 
NDBC,ioos:station:NOAA.NDBC:SAUF1:1,2017-08-29T15:00:00Z,29.8570,-81.2650,0.0,28.7,2 
NDBC,ioos:station:NOAA.NDBC:SAUF1:1,2017-08-29T17:00:00Z,29.8570,-81.2650,0.0,28.8,2 
NDBC,ioos:station:NOAA.NDBC:SAUF1:1,2017-08-29T19:00:00Z,29.8570,-81.2650,0.0,29.3,2 
NDBC,ioos:station:NOAA.NDBC:SAUF1:1,2017-08-29T21:00:00Z,29.8570,-81.2650,0.0,29.7,2 
NDBC,ioos:station:NOAA.NDBC:SAUF1:1,2017-08-29T23:00:00Z,29.8570,-81.2650,0.0,29.7,2 
NDBC,ioos:station:NOAA.NDBC:SAUF1:1,2017-08-30T02:00:00Z,29.8570,-81.2650,0.0,29.4,2 
NDBC,ioos:station:NOAA.NDBC:SAUF1:1,2017-08-30T03:00:00Z,29.8570,-81.2650,0.0,29.3,2 
NDBC,ioos:station:NOAA.NDBC:SAUF1:1,2017-08-30T05:00:00Z,29.8570,-81.2650,0.0,29.2,2 
NDBC,ioos:station:NOAA.NDBC:SAUF1:1,2017-08-30T07:00:00Z,29.8570,-81.2650,0.0,29.0,2 
NDBC,ioos:station:NOAA.NDBC:SAUF1:1,2017-08-30T09:00:00Z,29.8570,-81.2650,0.0,28.9,2 
NDBC,ioos:station:NOAA.NDBC:SAUF1:1,2017-08-30T11:00:00Z,29.8570,-81.2650,0.0,28.7,2 